TimeEDT,TemperatureF,Dew PointF,Humidity,Sea Level PressureIn,VisibilityMPH,Wind Direction,Wind SpeedMPH,Gust SpeedMPH,PrecipitationIn,Events,Conditions,WindDirDegrees,DateUTC
12:53 AM,64.9,57.0,75,29.90,10.0,SE,8.1,-,N/A,,Clear,140,2013-03-12 04:53:00
1:53 AM,66.0,57.9,75,29.88,10.0,SSE,9.2,-,N/A,,Scattered Clouds,150,2013-03-12 05:53:00
2:53 AM,66.0,57.9,75,29.87,10.0,SSE,8.1,-,N/A,,Clear,160,2013-03-12 06:53:00
3:53 AM,68.0,57.9,70,29.84,10.0,South,12.7,21.9,N/A,,Partly Cloudy,170,2013-03-12 07:53:00
4:53 AM,68.0,59.0,73,29.85,10.0,South,8.1,-,N/A,,Overcast,180,2013-03-12 08:53:00
5:53 AM,66.9,59.0,76,29.86,10.0,SSW,9.2,16.1,0.00,Rain,Light Rain,200,2013-03-12 09:53:00
6:27 AM,64.4,60.8,88,29.87,2.5,South,5.8,-,0.10,Rain,Rain,180,2013-03-12 10:27:00
6:36 AM,64.4,60.8,88,29.87,4.0,South,8.1,-,0.12,Rain,Light Rain,180,2013-03-12 10:36:00
6:53 AM,64.0,62.1,93,29.87,4.0,South,6.9,-,0.15,Rain,Light Rain,170,2013-03-12 10:53:00
7:16 AM,64.4,62.6,94,29.88,4.0,South,8.1,-,0.01,Rain,Light Rain,170,2013-03-12 11:16:00
7:26 AM,64.4,62.6,94,29.88,5.0,South,6.9,-,0.01,,Overcast,180,2013-03-12 11:26:00
7:33 AM,64.4,62.6,94,29.88,4.0,South,8.1,-,0.01,Rain,Light Rain,170,2013-03-12 11:33:00
7:46 AM,64.4,62.6,94,29.88,4.0,South,8.1,-,0.01,Rain,Light Rain,170,2013-03-12 11:46:00
7:53 AM,64.0,62.1,93,29.87,4.0,South,6.9,-,0.02,Rain,Light Rain,170,2013-03-12 11:53:00
8:28 AM,64.4,62.6,94,29.88,2.5,South,8.1,-,0.01,Rain,Light Rain,180,2013-03-12 12:28:00
8:53 AM,64.0,63.0,96,29.88,2.0,South,6.9,-,0.04,Rain,Light Rain,180,2013-03-12 12:53:00
9:53 AM,64.9,63.0,93,29.91,2.0,SW,4.6,-,0.01,Rain,Light Rain,220,2013-03-12 13:53:00
10:02 AM,64.4,62.6,94,29.92,1.5,SW,5.8,-,0.02,Rain,Rain,230,2013-03-12 14:02:00
10:17 AM,64.4,62.6,94,29.92,2.5,SW,11.5,-,0.05,Rain,Light Rain,230,2013-03-12 14:17:00
10:30 AM,64.4,62.6,94,29.93,3.0,SW,8.1,-,0.06,Rain,Light Rain,230,2013-03-12 14:30:00
10:53 AM,64.9,64.0,97,29.93,6.0,SSW,5.8,-,0.08,Rain,Light Rain,200,2013-03-12 14:53:00
11:53 AM,66.0,64.0,93,29.94,10.0,WSW,5.8,-,0.00,,Overcast,240,2013-03-12 15:53:00
12:46 PM,68.0,62.6,83,29.94,10.0,NW,10.4,-,N/A,,Mostly Cloudy,310,2013-03-12 16:46:00
12:53 PM,66.9,63.0,87,29.94,10.0,WNW,8.1,-,N/A,,Mostly Cloudy,300,2013-03-12 16:53:00
1:01 PM,66.2,62.6,88,29.94,10.0,NW,9.2,-,N/A,,Overcast,310,2013-03-12 17:01:00
1:53 PM,63.0,60.1,90,29.94,3.0,WNW,11.5,-,N/A,,Overcast,300,2013-03-12 17:53:00
2:37 PM,62.6,59.0,88,29.93,10.0,NW,6.9,-,N/A,,Overcast,320,2013-03-12 18:37:00
2:44 PM,64.4,59.0,83,29.93,10.0,NW,8.1,-,N/A,,Overcast,320,2013-03-12 18:44:00
2:53 PM,64.0,59.0,84,29.93,10.0,WNW,8.1,-,N/A,,Overcast,300,2013-03-12 18:53:00
3:16 PM,66.2,59.0,78,29.92,10.0,West,6.9,-,N/A,,Scattered Clouds,280,2013-03-12 19:16:00
3:30 PM,66.2,59.0,78,29.92,10.0,West,9.2,-,N/A,,Mostly Cloudy,280,2013-03-12 19:30:00
3:53 PM,66.0,57.9,75,29.91,10.0,WNW,8.1,-,N/A,,Overcast,290,2013-03-12 19:53:00
4:11 PM,64.4,57.2,77,29.92,10.0,NW,8.1,-,N/A,,Overcast,310,2013-03-12 20:11:00
4:38 PM,64.4,57.2,77,29.92,10.0,WNW,9.2,-,N/A,,Mostly Cloudy,290,2013-03-12 20:38:00
4:53 PM,68.0,57.9,70,29.91,10.0,WNW,9.2,-,N/A,,Mostly Cloudy,290,2013-03-12 20:53:00
5:26 PM,68.0,55.4,64,29.93,10.0,WNW,6.9,-,N/A,,Scattered Clouds,300,2013-03-12 21:26:00
5:53 PM,68.0,55.0,63,29.93,10.0,NW,8.1,-,N/A,,Clear,310,2013-03-12 21:53:00
6:53 PM,68.0,46.0,45,29.94,10.0,NW,4.6,-,N/A,,Clear,310,2013-03-12 22:53:00
7:53 PM,60.1,44.1,55,29.98,10.0,NW,5.8,-,N/A,,Clear,320,2013-03-12 23:53:00
8:53 PM,55.9,43.0,62,30.01,10.0,NW,4.6,-,N/A,,Clear,310,2013-03-13 00:53:00
9:53 PM,54.0,44.1,69,30.04,8.0,NW,6.9,-,N/A,,Clear,310,2013-03-13 01:53:00
10:53 PM,51.1,44.1,77,30.05,10.0,NW,3.5,-,N/A,,Clear,320,2013-03-13 02:53:00
11:53 PM,50.0,44.1,80,30.06,10.0,West,4.6,-,N/A,,Clear,270,2013-03-13 03:53:00